TimeCST,TemperatureF,Dew PointF,Humidity,Sea Level PressureIn,VisibilityMPH,Wind Direction,Wind SpeedMPH,Gust SpeedMPH,PrecipitationIn,Events,Conditions,WindDirDegrees,DateUTC
12:15 AM,27.5,23.7,86,30.25,10.0,ESE,8.1,-,N/A,,Clear,120,2013-03-07 06:15:00
12:35 AM,28.0,23.9,84,30.24,10.0,ESE,10.4,-,N/A,,Clear,110,2013-03-07 06:35:00
12:55 AM,27.5,23.5,85,30.24,10.0,ESE,9.2,-,N/A,,Clear,110,2013-03-07 06:55:00
1:15 AM,27.0,23.0,85,30.23,10.0,ESE,11.5,-,N/A,,Clear,110,2013-03-07 07:15:00
1:35 AM,26.6,23.0,86,30.24,10.0,ESE,10.4,-,N/A,,Clear,110,2013-03-07 07:35:00
1:55 AM,26.6,23.0,86,30.24,10.0,ESE,10.4,-,N/A,,Clear,110,2013-03-07 07:55:00
2:15 AM,26.4,22.6,86,30.24,10.0,ESE,10.4,-,N/A,,Clear,120,2013-03-07 08:15:00
2:35 AM,26.4,22.5,85,30.23,10.0,SE,11.5,-,N/A,,Clear,130,2013-03-07 08:35:00
2:55 AM,26.1,22.5,86,30.22,10.0,SE,11.5,-,N/A,,Clear,140,2013-03-07 08:55:00
3:15 AM,25.7,22.1,86,30.21,10.0,SE,11.5,-,N/A,,Clear,140,2013-03-07 09:15:00
3:35 AM,25.7,22.1,86,30.20,10.0,SE,10.4,-,N/A,,Clear,130,2013-03-07 09:35:00
3:55 AM,26.1,22.1,85,30.20,10.0,SE,11.5,-,N/A,,Clear,140,2013-03-07 09:55:00
4:15 AM,25.9,21.9,85,30.20,10.0,SE,11.5,-,N/A,,Clear,130,2013-03-07 10:15:00
4:35 AM,25.5,21.7,86,30.20,10.0,SE,8.1,-,N/A,,Clear,140,2013-03-07 10:35:00
4:55 AM,25.2,21.4,86,30.19,10.0,SE,10.4,-,N/A,,Clear,130,2013-03-07 10:55:00
5:15 AM,25.2,21.2,85,30.19,10.0,SE,10.4,-,N/A,,Clear,130,2013-03-07 11:15:00
5:35 AM,24.8,21.2,86,30.20,10.0,SE,10.4,-,N/A,,Clear,130,2013-03-07 11:35:00
6:15 AM,24.3,20.8,87,30.21,10.0,ESE,9.2,-,N/A,,Clear,120,2013-03-07 12:15:00
6:35 AM,24.4,21.0,87,30.21,10.0,SE,9.2,-,N/A,,Clear,130,2013-03-07 12:35:00
6:55 AM,24.4,20.8,86,30.22,10.0,SE,9.2,-,N/A,,Clear,130,2013-03-07 12:55:00
7:15 AM,24.6,21.0,86,30.22,10.0,SE,10.4,-,N/A,,Clear,130,2013-03-07 13:15:00
7:35 AM,25.7,21.6,84,30.23,10.0,SE,13.8,-,N/A,,Clear,130,2013-03-07 13:35:00
7:55 AM,26.6,21.7,82,30.22,10.0,SE,15.0,-,N/A,,Clear,130,2013-03-07 13:55:00
8:15 AM,27.7,22.3,80,30.22,10.0,SE,17.3,20.7,N/A,,Clear,130,2013-03-07 14:15:00
8:35 AM,28.8,22.6,78,30.23,10.0,SE,18.4,-,N/A,,Clear,130,2013-03-07 14:35:00
8:55 AM,29.8,23.0,76,30.22,10.0,SE,17.3,21.9,N/A,,Clear,140,2013-03-07 14:55:00
9:15 AM,30.0,23.5,77,30.21,10.0,SE,19.6,23.0,N/A,,Clear,130,2013-03-07 15:15:00
9:35 AM,31.5,24.1,74,30.21,10.0,SE,17.3,-,N/A,,Clear,130,2013-03-07 15:35:00
9:55 AM,32.2,24.4,73,30.21,10.0,SE,17.3,-,N/A,,Clear,140,2013-03-07 15:55:00
10:15 AM,33.8,25.0,70,30.20,10.0,SE,19.6,-,N/A,,Clear,130,2013-03-07 16:15:00
10:35 AM,35.2,25.7,68,30.19,10.0,SE,16.1,20.7,N/A,,Clear,140,2013-03-07 16:35:00
10:55 AM,36.9,25.9,64,30.18,10.0,SE,17.3,24.2,N/A,,Clear,140,2013-03-07 16:55:00
11:15 AM,38.3,26.6,63,30.17,10.0,SSE,18.4,26.5,N/A,,Clear,150,2013-03-07 17:15:00
11:35 AM,40.1,27.0,59,30.16,10.0,SSE,16.1,24.2,N/A,,Clear,150,2013-03-07 17:35:00
11:55 AM,41.0,27.1,58,30.15,10.0,SSE,20.7,25.3,N/A,,Clear,150,2013-03-07 17:55:00
12:15 PM,42.1,27.9,57,30.14,10.0,SSE,19.6,24.2,N/A,,Clear,150,2013-03-07 18:15:00
12:35 PM,44.6,28.2,53,30.13,10.0,SE,18.4,25.3,N/A,,Clear,130,2013-03-07 18:35:00
12:55 PM,45.1,28.4,52,30.12,10.0,SE,18.4,24.2,N/A,,Clear,140,2013-03-07 18:55:00
1:15 PM,46.2,28.8,51,30.11,10.0,SSE,21.9,-,N/A,,Clear,150,2013-03-07 19:15:00
1:35 PM,48.0,29.7,49,30.10,10.0,SE,18.4,27.6,N/A,,Clear,140,2013-03-07 19:35:00
1:55 PM,48.9,28.9,46,30.09,10.0,SSE,23.0,-,N/A,,Clear,150,2013-03-07 19:55:00
2:15 PM,50.2,29.8,46,30.08,10.0,SE,16.1,25.3,N/A,,Clear,140,2013-03-07 20:15:00
2:35 PM,51.1,29.7,44,30.08,10.0,SSE,20.7,24.2,N/A,,Clear,150,2013-03-07 20:35:00
2:55 PM,52.0,28.8,41,30.08,10.0,SSE,18.4,27.6,N/A,,Clear,150,2013-03-07 20:55:00
3:15 PM,52.0,28.8,41,30.08,10.0,SSE,16.1,24.2,N/A,,Clear,150,2013-03-07 21:15:00
3:35 PM,52.7,28.4,39,30.08,10.0,SE,17.3,23.0,N/A,,Clear,140,2013-03-07 21:35:00
3:55 PM,52.9,28.6,39,30.08,10.0,SSE,16.1,20.7,N/A,,Clear,150,2013-03-07 21:55:00
4:15 PM,52.2,29.1,41,30.07,10.0,SE,15.0,-,N/A,,Clear,140,2013-03-07 22:15:00
4:35 PM,52.3,29.8,42,30.08,10.0,SE,17.3,-,N/A,,Clear,130,2013-03-07 22:35:00
4:55 PM,51.4,30.6,45,30.07,10.0,SE,16.1,-,N/A,,Clear,130,2013-03-07 22:55:00
5:15 PM,51.1,30.7,46,30.07,10.0,SE,16.1,-,N/A,,Clear,130,2013-03-07 23:15:00
5:35 PM,49.5,30.7,49,30.07,10.0,SE,13.8,-,N/A,,Clear,130,2013-03-07 23:35:00
5:55 PM,46.0,30.7,55,30.07,10.0,SE,11.5,-,N/A,,Clear,130,2013-03-07 23:55:00
7:35 PM,38.5,29.7,71,30.12,10.0,ESE,10.4,-,N/A,,Clear,110,2013-03-08 01:35:00
7:55 PM,37.8,29.5,72,30.12,10.0,ESE,9.2,-,N/A,,Clear,110,2013-03-08 01:55:00
8:15 PM,36.3,29.3,76,30.12,10.0,ESE,10.4,-,N/A,,Clear,110,2013-03-08 02:15:00
8:35 PM,37.4,29.3,73,30.13,10.0,ESE,13.8,-,N/A,,Clear,120,2013-03-08 02:35:00
8:55 PM,36.7,29.1,74,30.13,10.0,ESE,11.5,-,N/A,,Clear,120,2013-03-08 02:55:00
9:15 PM,35.8,28.9,76,30.14,10.0,SE,11.5,-,N/A,,Clear,130,2013-03-08 03:15:00
9:35 PM,34.9,28.4,77,30.14,10.0,SE,10.4,-,N/A,,Clear,130,2013-03-08 03:35:00
9:55 PM,34.2,28.4,79,30.15,10.0,SE,9.2,-,N/A,,Clear,130,2013-03-08 03:55:00
10:15 PM,33.4,28.2,81,30.16,10.0,SE,8.1,-,N/A,,Clear,130,2013-03-08 04:15:00
10:35 PM,32.9,28.0,82,30.16,10.0,SE,9.2,-,N/A,,Clear,130,2013-03-08 04:35:00
10:55 PM,32.2,27.9,84,30.17,10.0,SE,6.9,-,N/A,,Clear,130,2013-03-08 04:55:00
11:15 PM,32.0,27.5,83,30.17,10.0,ESE,5.8,-,N/A,,Clear,120,2013-03-08 05:15:00
11:35 PM,31.8,27.5,84,30.17,10.0,SE,6.9,-,N/A,,Clear,130,2013-03-08 05:35:00
11:55 PM,31.1,27.0,85,30.17,10.0,SE,5.8,-,N/A,,Clear,130,2013-03-08 05:55:00